Terug naar catalogus

STARLINK-30990

ActiefCommunicatieVLEO
NORAD 58478·PAYLOAD·🇺🇸 United States

Gelanceerd Dec 3, 2023 vanaf Cape Canaveral Space Force Station

Loading…

Volgende Passages (komende 24 uur)

TLE

VersSource: CelesTrak SupGP

Epoch: Sep 14, 2026, 22:31 UTC

1 58478C 23186F   26257.93868056  .00066722  00000+0  24165-2 0  2578
2 58478  43.0022  78.3667 0001732 270.6461 259.3879 15.27547419    10

Volg STARLINK-30990 in realtime met AllMySat

Download on the App Store